QPF
0.02 0.00 0.00 0.00 0.00 0.00 0.00 0.00 0.01 0.00 0.00 0.00 0.01 0.01 0.01 0.01 0.01 0.01 0.02 0.02 0.02 0.02 0.02 0.02 0.02 0.02 0.03 0.03 0.03 0.04 0.05 0.06 0.07 0.08 0.09 0.07 0.05 0.05 0.04 0.06 0.10 0.10 0.10
0.02 0.00 0.00 0.00 0.00 0.00 0.00 0.00 0.01 0.01 0.01 0.01 0.01 0.01 0.01 0.01 0.01 0.01 0.01 0.02 0.02 0.02 0.02 0.02 0.02 0.02 0.02 0.02 0.03 0.03 0.03 0.04 0.06 0.07 0.09 0.07 0.07 0.06 0.05 0.05 0.07 0.09 0.10
0.02 0.00 0.00 0.00 0.00 0.00 0.00 0.00 0.01 0.00 0.01 0.03 0.02 0.01 0.01 0.01 0.01 0.01 0.01 0.01 0.02 0.03 0.03 0.03 0.03 0.02 0.01 0.02 0.02 0.03 0.03 0.03 0.05 0.06 0.06 0.04 0.05 0.07 0.06 0.05 0.05 0.06 0.09
0.02 0.00 0.00 0.00 0.00 0.00 0.00 0.00 0.00 0.00 0.01 0.01 0.01 0.01 0.01 0.01 0.01 0.01 0.01 0.01 0.02 0.03 0.03 0.03 0.04 0.03 0.02 0.02 0.02 0.02 0.02 0.03 0.05 0.06 0.04 0.03 0.04 0.08 0.09 0.07 0.04 0.04 0.06
0.01 0.00 0.00 0.00 0.00 0.00 0.00 0.00 0.00 0.00 0.00 0.00 0.01 0.01 0.00 0.01 0.01 0.01 0.02 0.02 0.02 0.02 0.02 0.02 0.03 0.03 0.03 0.02 0.01 0.01 0.02 0.03 0.04 0.07 0.04 0.04 0.04 0.08 0.08 0.07 0.07 0.06 0.06
0.01 0.00 0.00 0.00 0.00 0.00 0.00 0.00 0.00 0.00 0.01 0.01 0.01 0.01 0.01 0.01 0.01 0.01 0.02 0.02 0.02 0.02 0.02 0.02 0.02 0.02 0.02 0.02 0.01 0.01 0.02 0.02 0.03 0.05 0.04 0.04 0.05 0.08 0.07 0.06 0.06 0.05 0.05
0.02 0.00 0.00 0.00 0.00 0.01 0.01 0.00 0.00 0.01 0.01 0.01 0.01 0.01 0.01 0.01 0.01 0.01 0.01 0.02 0.02 0.02 0.02 0.02 0.02 0.02 0.01 0.02 0.02 0.02 0.02 0.02 0.03 0.07 0.07 0.05 0.11 0.14 0.08 0.07 0.06 0.04 0.03
0.03 0.01 0.00 0.01 0.01 0.01 0.01 0.02 0.01 0.01 0.01 0.01 0.01 0.02 0.02 0.01 0.01 0.01 0.02 0.02 0.02 0.02 0.02 0.02 0.01 0.01 0.01 0.01 0.01 0.02 0.02 0.03 0.05 0.10 0.10 0.05 0.10 0.10 0.08 0.07 0.06 0.04 0.03
0.04 0.02 0.01 0.01 0.01 0.01 0.01 0.01 0.01 0.01 0.01 0.01 0.01 0.02 0.02 0.02 0.02 0.01 0.02 0.02 0.01 0.01 0.01 0.01 0.01 0.01 0.01 0.01 0.02 0.02 0.02 0.04 0.07 0.08 0.07 0.05 0.04 0.04 0.06 0.06 0.05 0.03 0.03
0.07 0.04 0.03 0.04 0.03 0.02 0.01 0.01 0.01 0.01 0.01 0.01 0.01 0.02 0.03 0.04 0.04 0.04 0.02 0.01 0.01 0.01 0.01 0.01 0.01 0.01 0.02 0.02 0.02 0.02 0.03 0.03 0.03 0.03 0.04 0.03 0.04 0.04 0.04 0.04 0.03 0.03 0.02
0.10 0.07 0.05 0.05 0.07 0.04 0.03 0.02 0.01 0.01 0.03 0.02 0.02 0.02 0.02 0.02 0.04 0.04 0.03 0.02 0.02 0.01 0.01 0.01 0.01 0.01 0.02 0.02 0.02 0.02 0.03 0.02 0.02 0.01 0.02 0.03 0.04 0.04 0.04 0.03 0.03 0.03 0.02
0.07 0.06 0.06 0.10 0.09 0.04 0.03 0.03 0.03 0.02 0.02 0.03 0.02 0.02 0.02 0.02 0.02 0.02 0.03 0.03 0.03 0.02 0.02 0.01 0.02 0.02 0.01 0.01 0.02 0.02 0.02 0.02 0.02 0.01 0.03 0.04 0.04 0.05 0.05 0.04 0.03 0.03 0.03
0.06 0.06 0.07 0.10 0.09 0.06 0.07 0.06 0.06 0.04 0.02 0.02 0.02 0.02 0.02 0.02 0.03 0.04 0.03 0.03 0.03 0.03 0.02 0.01 0.02 0.01 0.01 0.01 0.01 0.02 0.04 0.04 0.03 0.03 0.05 0.08 0.07 0.06 0.06 0.06 0.04 0.03 0.03
0.07 0.06 0.05 0.08 0.12 0.13 0.14 0.11 0.11 0.09 0.06 0.03 0.03 0.03 0.03 0.03 0.03 0.03 0.04 0.05 0.05 0.03 0.03 0.02 0.01 0.02 0.02 0.01 0.02 0.03 0.06 0.04 0.04 0.04 0.06 0.07 0.08 0.08 0.08 0.08 0.07 0.05 0.04
0.05 0.04 0.04 0.06 0.09 0.09 0.09 0.08 0.12 0.18 0.15 0.09 0.06 0.05 0.04 0.03 0.03 0.04 0.03 0.05 0.04 0.03 0.03 0.02 0.02 0.02 0.02 0.02 0.02 0.02 0.03 0.03 0.06 0.04 0.04 0.05 0.05 0.06 0.06 0.05 0.05 0.05 0.04
0.03 0.03 0.04 0.05 0.08 0.08 0.07 0.06 0.07 0.11 0.15 0.15 0.09 0.07 0.06 0.05 0.03 0.04 0.05 0.05 0.05 0.04 0.03 0.02 0.02 0.02 0.03 0.04 0.04 0.04 0.04 0.03 0.03 0.03 0.02 0.02 0.03 0.04 0.04 0.04 0.04 0.04 0.03
0.02 0.03 0.03 0.04 0.05 0.05 0.05 0.04 0.03 0.04 0.09 0.14 0.12 0.09 0.06 0.05 0.04 0.03 0.03 0.05 0.07 0.05 0.03 0.02 0.03 0.03 0.03 0.04 0.04 0.04 0.04 0.04 0.04 0.04 0.04 0.03 0.02 0.02 0.03 0.03 0.03 0.03 0.03
0.02 0.03 0.04 0.04 0.04 0.05 0.04 0.04 0.03 0.04 0.05 0.08 0.09 0.09 0.08 0.08 0.06 0.04 0.03 0.03 0.04 0.03 0.03 0.03 0.03 0.03 0.03 0.04 0.04 0.04 0.04 0.03 0.04 0.03 0.03 0.02 0.02 0.01 0.02 0.02 0.02 0.03 0.03
0.02 0.02 0.03 0.03 0.03 0.06 0.06 0.05 0.04 0.07 0.07 0.06 0.06 0.06 0.08 0.09 0.07 0.05 0.04 0.03 0.06 0.07 0.05 0.04 0.04 0.04 0.03 0.04 0.04 0.04 0.04 0.03 0.03 0.03 0.03 0.03 0.03 0.02 0.02 0.02 0.02 0.02 0.02
0.04 0.04 0.04 0.04 0.04 0.05 0.07 0.08 0.09 0.10 0.11 0.07 0.06 0.07 0.09 0.10 0.08 0.06 0.05 0.03 0.06 0.10 0.06 0.04 0.05 0.06 0.05 0.05 0.05 0.05 0.05 0.04 0.03 0.02 0.02 0.03 0.04 0.03 0.02 0.03 0.02 0.02 0.02
0.05 0.06 0.06 0.05 0.06 0.06 0.08 0.11 0.13 0.13 0.14 0.09 0.09 0.11 0.13 0.12 0.09 0.07 0.04 0.03 0.03 0.04 0.04 0.10 0.09 0.08 0.08 0.08 0.07 0.06 0.07 0.05 0.04 0.03 0.02 0.03 0.03 0.04 0.03 0.03 0.03 0.02 0.01
0.06 0.07 0.09 0.07 0.07 0.06 0.07 0.07 0.07 0.08 0.10 0.11 0.10 0.08 0.10 0.10 0.09 0.05 0.04 0.03 0.03 0.02 0.03 0.05 0.07 0.07 0.07 0.08 0.09 0.08 0.06 0.05 0.04 0.03 0.02 0.01 0.02 0.03 0.04 0.03 0.05 0.05 0.04
0.10 0.08 0.09 0.08 0.07 0.07 0.08 0.09 0.10 0.10 0.13 0.13 0.11 0.07 0.07 0.06 0.05 0.03 0.03 0.03 0.03 0.03 0.03 0.03 0.04 0.04 0.05 0.06 0.06 0.07 0.07 0.07 0.05 0.04 0.03 0.02 0.02 0.03 0.06 0.07 0.07 0.07 0.05
0.07 0.07 0.06 0.06 0.05 0.06 0.07 0.09 0.10 0.10 0.14 0.15 0.11 0.08 0.08 0.08 0.06 0.05 0.04 0.03 0.03 0.03 0.03 0.03 0.02 0.03 0.03 0.03 0.04 0.05 0.05 0.05 0.06 0.06 0.04 0.03 0.03 0.03 0.05 0.06 0.05 0.05 0.04
0.06 0.06 0.06 0.07 0.05 0.05 0.06 0.07 0.08 0.09 0.11 0.12 0.12 0.09 0.10 0.09 0.07 0.05 0.04 0.04 0.04 0.05 0.05 0.05 0.04 0.03 0.03 0.03 0.03 0.04 0.04 0.05 0.05 0.06 0.05 0.04 0.04 0.04 0.05 0.06 0.05 0.03 0.03
0.05 0.05 0.05 0.04 0.04 0.06 0.07 0.09 0.09 0.09 0.11 0.12 0.13 0.13 0.14 0.12 0.09 0.07 0.06 0.04 0.04 0.05 0.05 0.05 0.05 0.04 0.04 0.04 0.04 0.05 0.05 0.05 0.04 0.04 0.05 0.04 0.03 0.04 0.05 0.05 0.06 0.04 0.03
MSLP
1009.64 1009.01 1008.60 1008.47 1008.60 1008.91 1009.28 1009.61 1009.84 1009.92 1009.89 1009.79 1009.72 1009.73 1009.86 1010.10 1010.43 1010.79 1011.13 1011.42 1011.64 1011.82 1011.99 1012.17 1012.39 1012.66 1012.96 1013.27 1013.57 1013.83 1014.06 1014.26 1014.46 1014.68 1014.94 1015.23 1015.53 1015.82 1016.07 1016.26 1016.37 1016.44 1016.48
1009.40 1008.89 1008.60 1008.56 1008.74 1009.07 1009.44 1009.77 1009.99 1010.08 1010.08 1010.04 1010.04 1010.11 1010.29 1010.56 1010.89 1011.23 1011.54 1011.79 1011.98 1012.14 1012.30 1012.48 1012.71 1012.98 1013.28 1013.58 1013.85 1014.09 1014.31 1014.50 1014.71 1014.95 1015.22 1015.52 1015.83 1016.12 1016.35 1016.52 1016.62 1016.67 1016.70
1008.91 1008.55 1008.38 1008.46 1008.72 1009.11 1009.52 1009.87 1010.11 1010.24 1010.28 1010.30 1010.34 1010.47 1010.67 1010.94 1011.25 1011.55 1011.81 1012.01 1012.17 1012.31 1012.47 1012.67 1012.92 1013.21 1013.52 1013.82 1014.10 1014.35 1014.57 1014.78 1015.01 1015.28 1015.57 1015.88 1016.18 1016.45 1016.65 1016.79 1016.86 1016.88 1016.89
1008.25 1008.03 1008.02 1008.22 1008.59 1009.05 1009.51 1009.90 1010.18 1010.34 1010.43 1010.50 1010.60 1010.75 1010.96 1011.22 1011.49 1011.74 1011.94 1012.10 1012.23 1012.37 1012.54 1012.77 1013.04 1013.36 1013.70 1014.02 1014.32 1014.59 1014.84 1015.08 1015.35 1015.64 1015.95 1016.26 1016.54 1016.77 1016.93 1017.02 1017.04 1017.03 1017.01
1007.57 1007.49 1007.61 1007.93 1008.40 1008.93 1009.44 1009.86 1010.17 1010.37 1010.51 1010.62 1010.75 1010.93 1011.14 1011.39 1011.62 1011.83 1011.99 1012.12 1012.24 1012.38 1012.58 1012.83 1013.14 1013.49 1013.85 1014.20 1014.52 1014.81 1015.09 1015.38 1015.68 1015.99 1016.32 1016.62 1016.87 1017.05 1017.15 1017.18 1017.14 1017.09 1017.04
1007.03 1007.06 1007.30 1007.72 1008.26 1008.83 1009.35 1009.78 1010.09 1010.31 1010.46 1010.60 1010.77 1010.98 1011.21 1011.45 1011.67 1011.86 1012.00 1012.13 1012.25 1012.42 1012.64 1012.92 1013.26 1013.63 1014.01 1014.37 1014.70 1015.01 1015.31 1015.62 1015.95 1016.28 1016.61 1016.89 1017.11 1017.23 1017.27 1017.22 1017.13 1017.04 1016.96
1006.76 1006.88 1007.19 1007.66 1008.21 1008.77 1009.26 1009.65 1009.93 1010.13 1010.29 1010.46 1010.66 1010.91 1011.18 1011.44 1011.69 1011.88 1012.04 1012.18 1012.33 1012.52 1012.77 1013.08 1013.43 1013.81 1014.17 1014.52 1014.84 1015.15 1015.45 1015.77 1016.11 1016.45 1016.76 1017.02 1017.20 1017.27 1017.25 1017.14 1017.01 1016.88 1016.79
1006.82 1006.99 1007.33 1007.79 1008.31 1008.79 1009.20 1009.50 1009.71 1009.86 1010.01 1010.20 1010.45 1010.75 1011.07 1011.40 1011.69 1011.93 1012.13 1012.30 1012.49 1012.71 1012.97 1013.29 1013.64 1013.99 1014.33 1014.64 1014.93 1015.21 1015.49 1015.79 1016.12 1016.44 1016.74 1016.98 1017.12 1017.15 1017.07 1016.93 1016.76 1016.62 1016.54
1007.18 1007.37 1007.70 1008.11 1008.52 1008.88 1009.15 1009.32 1009.43 1009.53 1009.66 1009.87 1010.16 1010.53 1010.94 1011.34 1011.70 1012.00 1012.25 1012.47 1012.69 1012.93 1013.21 1013.52 1013.85 1014.17 1014.46 1014.71 1014.95 1015.17 1015.41 1015.67 1015.97 1016.27 1016.54 1016.75 1016.86 1016.86 1016.76 1016.60 1016.42 1016.28 1016.21
1007.74 1007.93 1008.21 1008.53 1008.81 1009.01 1009.12 1009.14 1009.14 1009.17 1009.28 1009.52 1009.87 1010.32 1010.80 1011.28 1011.72 1012.08 1012.38 1012.63 1012.88 1013.14 1013.42 1013.71 1014.01 1014.29 1014.53 1014.72 1014.89 1015.05 1015.23 1015.44 1015.69 1015.95 1016.19 1016.37 1016.46 1016.44 1016.34 1016.18 1016.02 1015.90 1015.86
1008.37 1008.54 1008.77 1008.97 1009.11 1009.14 1009.08 1008.97 1008.86 1008.83 1008.94 1009.21 1009.62 1010.14 1010.70 1011.24 1011.73 1012.14 1012.47 1012.75 1013.01 1013.27 1013.55 1013.83 1014.10 1014.34 1014.54 1014.68 1014.79 1014.89 1015.01 1015.16 1015.35 1015.56 1015.76 1015.91 1015.98 1015.96 1015.87 1015.74 1015.60 1015.51 1015.50
1008.94 1009.10 1009.26 1009.36 1009.35 1009.24 1009.04 1008.81 1008.63 1008.58 1008.69 1008.99 1009.45 1010.02 1010.63 1011.22 1011.74 1012.16 1012.50 1012.79 1013.04 1013.30 1013.57 1013.85 1014.11 1014.34 1014.51 1014.62 1014.69 1014.75 1014.81 1014.90 1015.03 1015.18 1015.33 1015.45 1015.50 1015.49 1015.42 1015.31 1015.21 1015.15 1015.16
1009.39 1009.52 1009.62 1009.62 1009.51 1009.29 1008.99 1008.70 1008.49 1008.43 1008.56 1008.89 1009.39 1009.99 1010.61 1011.21 1011.71 1012.13 1012.45 1012.72 1012.97 1013.23 1013.51 1013.79 1014.07 1014.31 1014.49 1014.60 1014.66 1014.69 1014.71 1014.75 1014.82 1014.91 1015.00 1015.08 1015.11 1015.09 1015.04 1014.96 1014.88 1014.85 1014.87
1009.68 1009.79 1009.84 1009.77 1009.58 1009.30 1008.96 1008.66 1008.45 1008.42 1008.58 1008.94 1009.44 1010.04 1010.64 1011.20 1011.66 1012.03 1012.32 1012.57 1012.82 1013.08 1013.38 1013.70 1014.02 1014.30 1014.52 1014.67 1014.75 1014.77 1014.77 1014.77 1014.78 1014.80 1014.84 1014.87 1014.87 1014.84 1014.79 1014.73 1014.68 1014.65 1014.67
1009.84 1009.93 1009.93 1009.81 1009.59 1009.29 1008.97 1008.70 1008.54 1008.55 1008.74 1009.11 1009.61 1010.16 1010.70 1011.19 1011.59 1011.90 1012.15 1012.38 1012.63 1012.92 1013.25 1013.63 1014.01 1014.36 1014.64 1014.85 1014.96 1015.01 1015.01 1014.98 1014.94 1014.91 1014.88 1014.86 1014.82 1014.78 1014.73 1014.67 1014.63 1014.60 1014.60
1009.94 1009.98 1009.94 1009.80 1009.57 1009.30 1009.03 1008.83 1008.74 1008.81 1009.04 1009.40 1009.85 1010.33 1010.79 1011.18 1011.50 1011.76 1011.97 1012.19 1012.46 1012.78 1013.18 1013.61 1014.07 1014.49 1014.85 1015.13 1015.30 1015.38 1015.39 1015.36 1015.29 1015.22 1015.14 1015.07 1014.99 1014.92 1014.86 1014.80 1014.75 1014.72 1014.70
1010.02 1010.02 1009.93 1009.77 1009.57 1009.35 1009.16 1009.05 1009.05 1009.18 1009.42 1009.76 1010.15 1010.54 1010.90 1011.20 1011.43 1011.64 1011.83 1012.06 1012.35 1012.73 1013.18 1013.68 1014.20 1014.70 1015.13 1015.47 1015.70 1015.83 1015.88 1015.85 1015.78 1015.67 1015.56 1015.45 1015.35 1015.26 1015.18 1015.11 1015.06 1015.02 1014.98
1010.14 1010.07 1009.94 1009.77 1009.60 1009.45 1009.36 1009.36 1009.45 1009.63 1009.88 1010.19 1010.50 1010.79 1011.04 1011.24 1011.42 1011.58 1011.77 1012.03 1012.36 1012.78 1013.28 1013.83 1014.40 1014.95 1015.43 1015.82 1016.10 1016.29 1016.37 1016.37 1016.31 1016.21 1016.09 1015.97 1015.85 1015.74 1015.65 1015.58 1015.53 1015.48 1015.43
1010.30 1010.16 1009.98 1009.81 1009.68 1009.61 1009.62 1009.72 1009.90 1010.13 1010.39 1010.65 1010.89 1011.08 1011.24 1011.37 1011.49 1011.64 1011.84 1012.12 1012.49 1012.95 1013.48 1014.05 1014.64 1015.20 1015.70 1016.12 1016.44 1016.67 1016.81 1016.86 1016.84 1016.77 1016.66 1016.55 1016.43 1016.32 1016.24 1016.17 1016.12 1016.08 1016.03
1010.50 1010.29 1010.07 1009.90 1009.81 1009.82 1009.94 1010.14 1010.40 1010.68 1010.95 1011.17 1011.34 1011.46 1011.54 1011.61 1011.70 1011.85 1012.07 1012.38 1012.78 1013.25 1013.78 1014.34 1014.90 1015.43 1015.92 1016.34 1016.69 1016.96 1017.15 1017.26 1017.31 1017.29 1017.23 1017.14 1017.04 1016.95 1016.88 1016.82 1016.78 1016.75 1016.70
1010.71 1010.45 1010.20 1010.03 1009.99 1010.08 1010.30 1010.60 1010.94 1011.28 1011.55 1011.75 1011.88 1011.94 1011.97 1012.01 1012.09 1012.25 1012.49 1012.82 1013.23 1013.69 1014.19 1014.69 1015.19 1015.66 1016.10 1016.50 1016.86 1017.16 1017.41 1017.59 1017.71 1017.76 1017.75 1017.71 1017.65 1017.58 1017.52 1017.48 1017.45 1017.42 1017.39
1010.94 1010.64 1010.37 1010.22 1010.23 1010.40 1010.71 1011.10 1011.52 1011.91 1012.21 1012.41 1012.51 1012.55 1012.56 1012.59 1012.68 1012.84 1013.11 1013.45 1013.84 1014.26 1014.70 1015.12 1015.52 1015.91 1016.28 1016.65 1016.99 1017.32 1017.62 1017.87 1018.07 1018.19 1018.25 1018.26 1018.23 1018.18 1018.13 1018.09 1018.06 1018.04 1018.00
1011.18 1010.86 1010.60 1010.47 1010.53 1010.77 1011.16 1011.64 1012.14 1012.58 1012.92 1013.14 1013.25 1013.29 1013.30 1013.35 1013.45 1013.64 1013.90 1014.23 1014.60 1014.96 1015.31 1015.64 1015.94 1016.23 1016.52 1016.84 1017.17 1017.52 1017.85 1018.17 1018.42 1018.61 1018.73 1018.77 1018.76 1018.72 1018.67 1018.62 1018.58 1018.54 1018.50
1011.44 1011.14 1010.90 1010.80 1010.91 1011.21 1011.67 1012.22 1012.78 1013.28 1013.67 1013.93 1014.06 1014.13 1014.17 1014.23 1014.36 1014.56 1014.83 1015.14 1015.46 1015.76 1016.03 1016.25 1016.45 1016.65 1016.87 1017.14 1017.45 1017.80 1018.17 1018.52 1018.83 1019.06 1019.21 1019.27 1019.27 1019.22 1019.14 1019.07 1018.99 1018.92 1018.85
1011.74 1011.48 1011.28 1011.22 1011.37 1011.72 1012.23 1012.83 1013.44 1013.99 1014.42 1014.72 1014.90 1015.00 1015.07 1015.17 1015.32 1015.53 1015.80 1016.09 1016.37 1016.61 1016.80 1016.94 1017.06 1017.18 1017.35 1017.58 1017.87 1018.22 1018.60 1018.97 1019.30 1019.55 1019.71 1019.77 1019.75 1019.67 1019.55 1019.43 1019.31 1019.19 1019.06
1012.07 1011.88 1011.73 1011.72 1011.90 1012.28 1012.82 1013.45 1014.09 1014.67 1015.13 1015.46 1015.68 1015.82 1015.94 1016.06 1016.24 1016.46 1016.73 1017.00 1017.24 1017.44 1017.58 1017.67 1017.73 1017.81 1017.94 1018.14 1018.42 1018.76 1019.14 1019.51 1019.83 1020.07 1020.21 1020.25 1020.20 1020.08 1019.92 1019.74 1019.56 1019.38 1019.19
Thickness
5802 5804 5804 5803 5801 5800 5797 5795 5793 5791 5789 5787 5785 5784 5782 5780 5779 5777 5775 5773 5772 5771 5769 5768 5766 5765 5763 5762 5760 5758 5757 5756 5754 5753 5751 5750 5749 5747 5746 5745 5744 5743 5742
5807 5804 5803 5802 5800 5798 5795 5793 5791 5789 5787 5785 5783 5781 5779 5777 5775 5774 5772 5771 5769 5768 5767 5765 5764 5762 5761 5760 5758 5756 5755 5754 5752 5751 5749 5748 5747 5745 5744 5743 5743 5741 5740
5807 5804 5801 5800 5798 5795 5793 5791 5789 5786 5784 5782 5780 5778 5776 5775 5773 5771 5770 5768 5767 5766 5764 5763 5761 5760 5759 5757 5756 5754 5753 5751 5750 5749 5748 5746 5745 5744 5742 5742 5741 5740 5739
5806 5803 5800 5798 5796 5793 5790 5788 5786 5784 5781 5779 5777 5775 5774 5772 5771 5769 5768 5766 5765 5763 5762 5760 5759 5758 5756 5755 5753 5752 5751 5750 5748 5747 5746 5745 5744 5742 5741 5740 5740 5739 5738
5803 5801 5799 5797 5794 5791 5788 5786 5783 5781 5779 5777 5775 5773 5771 5769 5768 5767 5765 5764 5762 5761 5759 5758 5756 5755 5754 5752 5751 5750 5749 5748 5747 5745 5744 5743 5742 5741 5740 5739 5738 5738 5737
5800 5798 5796 5794 5791 5789 5787 5784 5781 5779 5777 5775 5772 5770 5768 5766 5765 5764 5762 5761 5760 5758 5757 5755 5754 5753 5751 5750 5749 5748 5747 5746 5745 5743 5742 5741 5741 5740 5739 5738 5737 5736 5736
5797 5796 5794 5791 5789 5786 5784 5781 5779 5776 5774 5772 5769 5767 5766 5764 5762 5761 5760 5759 5757 5756 5754 5753 5752 5750 5749 5748 5747 5746 5745 5745 5743 5741 5740 5740 5740 5739 5738 5737 5736 5735 5734
5795 5793 5790 5788 5786 5783 5781 5778 5776 5774 5771 5769 5767 5765 5763 5761 5760 5759 5758 5756 5755 5753 5752 5751 5750 5748 5747 5746 5745 5744 5743 5742 5741 5740 5739 5739 5739 5738 5737 5735 5734 5733 5732
5793 5789 5786 5783 5781 5779 5777 5774 5772 5770 5768 5766 5764 5762 5761 5759 5758 5756 5755 5754 5752 5751 5749 5748 5747 5746 5745 5744 5743 5742 5741 5740 5739 5737 5737 5737 5737 5736 5735 5733 5732 5731 5730
5787 5784 5782 5779 5777 5776 5774 5771 5768 5766 5764 5763 5761 5760 5758 5756 5755 5754 5752 5751 5750 5748 5747 5746 5745 5744 5743 5742 5741 5740 5739 5738 5737 5735 5735 5734 5734 5733 5733 5731 5729 5728 5727
5781 5779 5778 5776 5775 5772 5770 5768 5765 5762 5761 5759 5758 5757 5755 5753 5751 5750 5749 5748 5747 5746 5744 5743 5742 5742 5741 5740 5739 5738 5737 5735 5734 5733 5732 5731 5731 5730 5729 5728 5726 5725 5724
5775 5775 5775 5773 5772 5769 5767 5765 5762 5759 5757 5756 5754 5753 5752 5750 5748 5747 5746 5745 5744 5743 5741 5740 5740 5739 5738 5737 5736 5735 5734 5733 5732 5730 5729 5729 5727 5726 5725 5724 5723 5722 5720
5775 5773 5771 5770 5768 5767 5764 5762 5758 5756 5754 5752 5750 5749 5748 5747 5745 5744 5743 5741 5740 5739 5738 5737 5736 5736 5735 5734 5733 5732 5731 5730 5729 5727 5726 5725 5724 5723 5722 5720 5719 5718 5717
5770 5769 5768 5767 5765 5763 5761 5759 5756 5752 5750 5748 5747 5745 5744 5742 5741 5740 5739 5738 5736 5736 5734 5734 5733 5732 5732 5731 5730 5729 5728 5726 5725 5724 5723 5722 5721 5720 5718 5717 5716 5714 5714
5767 5766 5765 5764 5762 5760 5758 5755 5753 5749 5747 5745 5743 5742 5741 5739 5737 5736 5735 5734 5733 5733 5732 5731 5730 5729 5728 5728 5727 5726 5725 5724 5722 5720 5719 5718 5717 5716 5715 5714 5712 5711 5710
5765 5763 5762 5760 5759 5757 5754 5752 5749 5746 5744 5742 5740 5739 5738 5736 5734 5732 5731 5730 5730 5729 5729 5728 5727 5725 5724 5724 5723 5723 5722 5721 5719 5717 5716 5714 5713 5712 5711 5710 5709 5708 5706
5763 5761 5759 5757 5755 5753 5751 5748 5745 5743 5740 5738 5737 5736 5735 5732 5731 5729 5728 5727 5727 5727 5726 5725 5724 5722 5721 5720 5719 5719 5718 5717 5715 5714 5712 5711 5709 5708 5707 5706 5705 5704 5703
5761 5758 5756 5755 5751 5750 5747 5744 5742 5739 5737 5736 5735 5734 5732 5730 5728 5726 5725 5725 5724 5723 5722 5721 5719 5718 5716 5716 5714 5714 5713 5712 5711 5710 5708 5707 5705 5703 5702 5701 5701 5700 5699
5758 5756 5753 5751 5748 5746 5743 5741 5738 5735 5733 5732 5732 5731 5729 5728 5726 5724 5722 5721 5721 5719 5718 5717 5715 5714 5711 5710 5710 5709 5708 5707 5707 5706 5704 5702 5701 5699 5698 5697 5696 5696 5695
5755 5752 5749 5746 5744 5741 5739 5736 5732 5729 5728 5727 5727 5726 5726 5725 5723 5721 5719 5718 5717 5714 5713 5712 5711 5710 5708 5706 5706 5704 5703 5703 5702 5701 5700 5698 5696 5695 5693 5692 5691 5691 5690
5749 5746 5744 5741 5738 5737 5733 5730 5726 5723 5723 5723 5723 5723 5722 5721 5719 5718 5716 5714 5712 5710 5710 5709 5707 5705 5703 5702 5698 5695 5696 5697 5696 5697 5696 5694 5692 5691 5689 5688 5687 5686 5685
5742 5741 5738 5736 5734 5733 5731 5729 5727 5723 5721 5721 5720 5720 5718 5718 5717 5715 5713 5710 5709 5707 5705 5704 5703 5700 5699 5698 5693 5687 5684 5685 5689 5693 5691 5690 5688 5687 5685 5684 5682 5681 5680
5737 5735 5735 5733 5731 5729 5728 5725 5722 5719 5716 5715 5714 5714 5714 5714 5714 5712 5710 5707 5705 5703 5701 5700 5699 5697 5693 5692 5692 5686 5679 5676 5679 5684 5686 5686 5684 5682 5681 5680 5679 5678 5676
5734 5734 5732 5730 5727 5725 5724 5721 5718 5714 5711 5711 5711 5710 5710 5710 5710 5709 5706 5704 5702 5700 5698 5697 5696 5694 5691 5687 5687 5686 5684 5680 5674 5673 5678 5680 5680 5678 5677 5676 5675 5674 5673
5734 5731 5728 5725 5723 5721 5720 5718 5715 5712 5709 5708 5707 5706 5705 5705 5705 5704 5703 5700 5698 5697 5695 5694 5692 5690 5688 5686 5683 5681 5679 5677 5675 5670 5668 5671 5672 5674 5673 5672 5671 5671 5669
5729 5726 5723 5720 5718 5717 5716 5714 5712 5708 5706 5703 5702 5701 5700 5700 5699 5699 5698 5696 5695 5694 5692 5691 5689 5687 5685 5683 5681 5679 5676 5672 5670 5667 5664 5664 5664 5667 5669 5669 5668 5667 5666